timestamp,surface_pressure_avg,surface_temp_avg,battery_voltage,lat,long
2024-01-28 00:09:00+00:00,322.8864,0.8,11.7,47.84626,-54.09684
2024-01-28 00:19:00+00:00,322.71299999999997,0.8,11.61,47.84626,-54.09684
2024-01-28 00:29:00+00:00,324.1646,0.7,11.61,47.84626,-54.09684
2024-01-28 00:39:00+00:00,323.578,0.7,11.61,47.84626,-54.09684
2024-01-28 00:49:00+00:00,326.573,0.7,11.61,47.84626,-54.09684
2024-01-28 00:59:00+00:00,327.5447,0.6,11.61,47.84626,-54.09684
2024-01-28 01:09:00+00:00,323.998,0.5,11.61,47.84626,-54.09684
2024-01-28 01:19:01+00:00,322.133,0.4,11.61,47.84626,-54.09684
2024-01-28 01:29:01+00:00,328.2297,0.39,11.61,47.84626,-54.09684
2024-01-28 01:39:01+00:00,329.913,0.3,11.61,47.84626,-54.09684
2024-01-28 01:49:01+00:00,323.7064,0.24,11.61,47.84626,-54.09684
2024-01-28 01:59:01+00:00,324.173,0.2,11.61,47.84626,-54.09684
2024-01-28 02:09:01+00:00,326.9864,0.3,11.61,47.84626,-54.09684
2024-01-28 02:19:00+00:00,319.6246,0.2,11.61,47.84626,-54.09684
2024-01-28 02:29:00+00:00,311.3947,0.19,11.61,47.84626,-54.09684
2024-01-28 02:39:00+00:00,317.2446,0.42,11.61,47.84626,-54.09684
2024-01-28 02:49:00+00:00,319.9996,0.56,11.61,47.84626,-54.09684
2024-01-28 02:59:00+00:00,309.9064,0.56,11.61,47.84626,-54.09684
2024-01-28 03:09:00+00:00,304.7647,0.55,11.61,47.84626,-54.09684
2024-01-28 03:19:00+00:00,308.478,0.59,11.61,47.84626,-54.09684
2024-01-28 03:29:00+00:00,300.2513,0.6,11.61,47.84626,-54.09684
2024-01-28 03:39:00+00:00,288.9297,0.79,11.61,47.84626,-54.09684
2024-01-28 03:49:00+00:00,287.8847,0.84,11.61,47.84626,-54.09684
2024-01-28 03:59:00+00:00,282.3531,0.85,11.61,47.84626,-54.09684
2024-01-28 04:09:00+00:00,269.2714,0.8,11.61,47.84626,-54.09684
2024-01-28 04:19:00+00:00,261.8548,0.79,11.61,47.84626,-54.09684
2024-01-28 04:29:00+00:00,260.9214,0.8,11.61,47.84626,-54.09684
2024-01-28 04:39:00+00:00,250.3831,0.8,11.61,47.84626,-54.09684
2024-01-28 04:49:00+00:00,241.4664,0.7,11.61,47.84626,-54.09684
2024-01-28 04:59:00+00:00,242.4847,0.73,11.61,47.84626,-54.09684
2024-01-28 05:09:00+00:00,238.5881,0.8,11.61,47.84626,-54.09684
2024-01-28 05:19:00+00:00,225.1598,0.83,11.61,47.84626,-54.09684
2024-01-28 05:29:00+00:00,216.9664,0.89,11.61,47.84626,-54.09684
2024-01-28 05:39:00+00:00,214.728,0.9,11.61,47.84626,-54.09684
2024-01-28 05:49:00+00:00,206.1898,0.9,11.61,47.84626,-54.09684
2024-01-28 05:59:00+00:00,195.9481,0.89,11.61,47.84626,-54.09684
2024-01-28 06:09:00+00:00,194.0981,0.89,11.61,47.84626,-54.09684
2024-01-28 06:19:00+00:00,189.7781,0.9,11.61,47.84626,-54.09684
2024-01-28 06:29:00+00:00,179.1115,0.9,11.61,47.84626,-54.09684
2024-01-28 06:39:00+00:00,175.5481,0.86,11.61,47.84626,-54.09684
2024-01-28 06:49:00+00:00,181.0248,0.88,11.61,47.84626,-54.09684
2024-01-28 06:59:00+00:00,182.6048,0.9,11.61,47.84626,-54.09684
2024-01-28 07:09:00+00:00,179.6248,0.9,11.61,47.84626,-54.09684
2024-01-28 07:19:00+00:00,180.2465,0.9,11.61,47.84626,-54.09684
2024-01-28 07:29:00+00:00,183.7298,0.9,11.61,47.84626,-54.09684
2024-01-28 07:39:00+00:00,186.2131,0.93,11.61,47.84626,-54.09684
2024-01-28 07:49:00+00:00,193.0699,0.97,11.61,47.84626,-54.09684
2024-01-28 07:59:00+00:00,199.7198,0.99,11.61,47.84626,-54.09684
2024-01-28 08:09:00+00:00,202.1098,1.0,11.61,47.84626,-54.09684
2024-01-28 08:19:00+00:00,204.9398,1.0,11.61,47.84626,-54.09684
2024-01-28 08:29:00+00:00,212.0398,1.0,11.61,47.84626,-54.09684
2024-01-28 08:39:00+00:00,219.0314,1.0,11.61,47.84626,-54.09684
2024-01-28 08:49:00+00:00,224.3764,1.06,11.61,47.84626,-54.09684
2024-01-28 08:59:00+00:00,231.9014,1.1,11.61,47.84626,-54.09684
2024-01-28 09:09:00+00:00,235.0831,1.14,11.61,47.84626,-54.09684
2024-01-28 09:19:00+00:00,234.8098,1.2,11.61,47.84626,-54.09684
2024-01-28 09:29:00+00:00,240.0764,1.2,11.61,47.84626,-54.09684
2024-01-28 09:39:00+00:00,245.6564,1.24,11.61,47.84626,-54.09684
2024-01-28 09:49:00+00:00,248.5281,1.27,11.61,47.84626,-54.09684
2024-01-28 09:59:00+00:00,254.4164,1.29,11.61,47.84626,-54.09684
2024-01-28 10:09:00+00:00,264.8197,1.3,11.61,47.84626,-54.09684
2024-01-28 10:19:00+00:00,268.058,1.3,11.53,47.84626,-54.09684
2024-01-28 10:29:00+00:00,270.1813,1.3,11.53,47.84626,-54.09684
2024-01-28 10:39:00+00:00,273.7513,1.3,11.53,47.84626,-54.09684
2024-01-28 10:49:00+00:00,278.4847,1.3,11.53,47.84626,-54.09684
2024-01-28 10:59:00+00:00,283.0181,1.3,11.53,47.84626,-54.09684
2024-01-28 11:09:00+00:00,289.0714,1.3,11.53,47.84626,-54.09684
2024-01-28 11:19:00+00:00,297.0797,1.29,11.53,47.84626,-54.09684
2024-01-28 11:29:00+00:00,303.7847,1.2,11.53,47.84626,-54.09684
2024-01-28 11:39:00+00:00,311.258,1.1,11.53,47.84626,-54.09684
2024-01-28 11:49:00+00:00,318.4113,1.1,11.53,47.84626,-54.09684
2024-01-28 11:59:00+00:00,327.523,1.0,11.53,47.84626,-54.09684
2024-01-28 12:09:00+00:00,331.9463,0.9,11.53,47.84626,-54.09684
2024-01-28 12:19:00+00:00,332.5996,0.8,11.53,47.84626,-54.09684
2024-01-28 12:29:00+00:00,334.6412,0.8,11.53,47.84626,-54.09684
2024-01-28 12:39:00+00:00,339.8897,0.8,11.53,47.84626,-54.09684
2024-01-28 12:49:00+00:00,341.5996,0.8,11.53,47.84626,-54.09684
2024-01-28 12:59:00+00:00,348.4913,0.8,11.53,47.84626,-54.09684
2024-01-28 13:09:00+00:00,354.473,0.8,11.53,47.84626,-54.09684
2024-01-28 13:19:00+00:00,357.9263,0.74,11.53,47.84626,-54.09684
2024-01-28 13:29:00+00:00,360.4797,0.77,11.53,47.84626,-54.09684
2024-01-28 13:39:00+00:00,366.1096,0.8,11.53,47.84626,-54.09684
2024-01-28 13:49:00+00:00,369.5063,0.97,11.53,47.84626,-54.09684
2024-01-28 13:59:00+00:00,373.1595,1.18,11.53,47.84626,-54.09684
2024-01-28 14:09:00+00:00,377.2945,1.3,11.53,47.84626,-54.09684
2024-01-28 14:19:01+00:00,380.6512,1.3,11.53,47.84626,-54.09684
2024-01-28 14:29:01+00:00,374.5963,1.29,11.53,47.84626,-54.09684
2024-01-28 14:39:01+00:00,367.7696,1.1,11.53,47.84626,-54.09684
2024-01-28 14:49:01+00:00,362.5945,1.1,11.53,47.84626,-54.09684
2024-01-28 14:59:01+00:00,360.3445,1.1,11.53,47.84626,-54.09684
2024-01-28 15:09:01+00:00,356.1029,1.12,11.53,47.84626,-54.09684
2024-01-28 15:19:00+00:00,350.1546,1.15,11.53,47.84626,-54.09684
2024-01-28 15:29:00+00:00,344.4646,1.17,11.53,47.84626,-54.09684
2024-01-28 15:39:00+00:00,336.2030000000001,1.16,11.53,47.84626,-54.09684
2024-01-28 15:49:00+00:00,329.7529,1.14,11.53,47.84626,-54.09684
2024-01-28 15:59:00+00:00,322.6296,1.1,11.53,47.84626,-54.09684
2024-01-28 16:09:00+00:00,314.6163,1.1,11.53,47.84626,-54.09684
2024-01-28 16:19:00+00:00,305.288,1.1,11.53,47.84626,-54.09684
2024-01-28 16:29:00+00:00,295.6714,1.1,11.53,47.84626,-54.09684
2024-01-28 16:39:00+00:00,286.6497,1.0,11.53,47.84626,-54.09684
2024-01-28 16:49:00+00:00,280.2364,1.0,11.53,47.84626,-54.09684
2024-01-28 16:59:00+00:00,271.5731,1.0,11.53,47.84626,-54.09684
2024-01-28 17:09:00+00:00,262.3748,1.0,11.53,47.84626,-54.09684
2024-01-28 17:19:00+00:00,252.1932,0.98,11.53,47.84626,-54.09684
2024-01-28 17:29:00+00:00,246.2964,0.95,11.53,47.84626,-54.09684
2024-01-28 17:39:00+00:00,241.2714,0.9,11.53,47.84626,-54.09684
2024-01-28 17:49:00+00:00,236.8047,0.9,11.53,47.84626,-54.09684
2024-01-28 17:59:00+00:00,231.1814,0.95,11.53,47.84626,-54.09684
2024-01-28 18:09:00+00:00,224.1981,0.9,11.53,47.84626,-54.09684
2024-01-28 18:19:00+00:00,219.7798,0.9,11.53,47.84626,-54.09684
2024-01-28 18:29:00+00:00,215.7365,0.91,11.53,47.84626,-54.09684
2024-01-28 18:39:00+00:00,210.3564,0.9,11.53,47.84626,-54.09684
2024-01-28 18:49:00+00:00,206.6815,0.91,11.53,47.84626,-54.09684
2024-01-28 18:59:00+00:00,205.4448,0.98,11.53,47.84626,-54.09684
2024-01-28 19:09:00+00:00,207.7097,1.0,11.53,47.84626,-54.09684
2024-01-28 19:19:00+00:00,209.2197,1.05,11.53,47.84626,-54.09684
2024-01-28 19:29:00+00:00,210.7181,1.1,11.53,47.84626,-54.09684
2024-01-28 19:39:00+00:00,212.8148,1.1,11.53,47.84626,-54.09684
2024-01-28 19:49:00+00:00,215.9064,1.13,11.53,47.84626,-54.09684
2024-01-28 19:59:00+00:00,214.4514,1.1,11.53,47.84626,-54.09684
2024-01-28 20:09:00+00:00,215.7498,1.1,11.53,47.84626,-54.09684
2024-01-28 20:19:00+00:00,224.3848,1.1,11.53,47.84626,-54.09684
2024-01-28 20:29:00+00:00,224.4014,1.1,11.53,47.84626,-54.09684
2024-01-28 20:39:00+00:00,219.8031,1.1,11.53,47.84626,-54.09684
2024-01-28 20:49:00+00:00,226.5548,1.09,11.53,47.84626,-54.09684
2024-01-28 20:59:00+00:00,234.2315,1.09,11.53,47.84626,-54.09684
2024-01-28 21:09:00+00:00,235.1181,1.08,11.53,47.84626,-54.09684
2024-01-28 21:19:00+00:00,235.2314,1.06,11.53,47.84626,-54.09684
2024-01-28 21:29:00+00:00,241.7547,1.04,11.53,47.84626,-54.09684
2024-01-28 21:39:00+00:00,248.9615,1.03,11.53,47.84626,-54.09684
2024-01-28 21:49:00+00:00,250.4197,1.0,11.53,47.84626,-54.09684
2024-01-28 21:59:00+00:00,253.5731,1.0,11.53,47.84626,-54.09684
2024-01-28 22:09:00+00:00,264.5781,1.0,11.53,47.84626,-54.09684
2024-01-28 22:19:00+00:00,272.3147,1.0,11.53,47.84626,-54.09684
2024-01-28 22:29:00+00:00,272.2064,1.0,11.53,47.84626,-54.09684
2024-01-28 22:39:00+00:00,279.0264,1.0,11.53,47.84626,-54.09684
2024-01-28 22:49:00+00:00,290.4064,1.0,11.53,47.84626,-54.09684
2024-01-28 22:59:00+00:00,293.388,1.0,11.53,47.84626,-54.09684
2024-01-28 23:09:00+00:00,294.6697,1.0,11.53,47.84626,-54.09684
2024-01-28 23:19:00+00:00,306.0114,1.01,11.53,47.84626,-54.09684
2024-01-28 23:29:00+00:00,311.9196,1.0,11.53,47.84626,-54.09684
2024-01-28 23:39:00+00:00,311.8513,1.0,11.53,47.84626,-54.09684
2024-01-28 23:49:00+00:00,317.2446,1.0,11.53,47.84626,-54.09684
2024-01-28 23:59:00+00:00,326.903,1.0,11.53,47.84626,-54.09684
